Location: Rometta
(44.2000°N, 10.0500°E)
Time: 22:57:13
(UTC+00:00)

BREEZE-M DEB (TANK) - Pass Details

Date: 20 January 2021
Orbit: 440 x 13842 km, 45.9° (Epoch: 03 March)

Event Time Altitude Azimuth Distance (km) Brightness Sun altitude
Rises 17:04:59 0° 285° (WNW) 2,688 6.9 -9.3°
Reaches altitude 10° 17:07:20 10° 271° (W) 1,582 6.0 -9.7°
Maximum altitude 17:09:54 27° 209° (SSW) 900 4.0 -10.1°
Drops below altitude 10° 17:12:57 10° 147° (SSE) 1,892 4.9 -10.7°
Sets 17:16:07 0° 136° (SE) 3,402 6.1 -11.2°
